Flag for U.S.A. Weather past 2 weeks in Chicago, Illinois, U.S.A.

Now
86 °F

Broken clouds.


Feels Like: 88 °F
Forecast: 69 / 82 °F
Wind: 9 mph from Southwest

Location: Chicago Midway Airport

Current Time: Aug 20, 2014 at 5:32:50 PM

Latest Report: Aug 20, 2014 at 4:51 PM


Visibility: 10 mi

Pressure: 29.83 "Hg

Humidity: 51%

Dew point: 66 °F

Location of ChicagoLocation

Historic Weather in Chicago — Graph

°F

Chicago temperature yesterday

Maximum temperature yesterday: 85 °F (at 4:51 PM)
Minimum temperature yesterday: 73 °F (at 3:51 AM)
Average temperature yesterday: 78 °F

Past Weeks' High & Low Weather Summary

 TemperatureHumidityPressure
High87 °F (Aug 20, 3:51 PM)93% (Aug 11, 6:51 AM)30.09 "Hg (Aug 11, 6:51 AM)
Low55 °F (Aug 15, 5:51 AM)36% (Aug 15, 3:51 PM)29.66 "Hg (Aug 19, 3:51 PM)
Average73 °F67%29.94 "Hg
* Reported Aug 5 3:51 PM — Aug 20 3:51 PM, Chicago, Weather by CustomWeather, © 2014

Note: Actual official high and low records may vary slightly from our data, if they occured in-between our weather recording intervals... More about our weather records

Advertising

Chicago weather history for previous 24 hours

 ConditionsComfort  
Time TempWeatherWind HumidityBarometerVisibility
3:51 PM
Aug 20
87 °FPartly sunny.10 mph48%29.83 "Hg10 mi
2:51 PM86 °FBroken clouds.13 mph51%29.85 "Hg10 mi
1:51 PM85 °FBroken clouds.14 mph55%29.86 "Hg10 mi
12:51 PM84 °FBroken clouds.14 mph59%29.88 "Hg10 mi
11:51 AM82 °FPartly sunny.15 mph58%29.89 "Hg10 mi
10:51 AM82 °FPartly sunny.9 mph58%29.85 "Hg10 mi
9:51 AM80 °FPassing clouds.5 mph62%29.85 "Hg10 mi
8:51 AM75 °FPassing clouds.No wind74%29.83 "Hg10 mi
7:51 AM73 °FPassing clouds.3 mph76%29.83 "Hg10 mi
6:51 AM69 °FPassing clouds.5 mph84%29.81 "Hg10 mi
5:51 AM69 °FPassing clouds.5 mph84%29.80 "Hg10 mi
4:51 AM70 °FPassing clouds.7 mph84%29.79 "Hg10 mi
3:51 AM70 °FClear.5 mph84%29.78 "Hg10 mi
2:51 AM71 °FClear.5 mph84%29.76 "Hg10 mi
1:51 AM72 °FClear.7 mph81%29.76 "Hg10 mi
12:51 AM73 °FClear.6 mph76%29.76 "Hg10 mi
11:51 PM
Aug 19
75 °FClear.5 mph71%29.75 "Hg10 mi
10:51 PM77 °FPassing clouds.6 mph66%29.73 "Hg10 mi
9:51 PM80 °FPassing clouds.6 mph62%29.72 "Hg10 mi
8:51 PM80 °FPassing clouds.6 mph67%29.70 "Hg10 mi
7:51 PM81 °FBroken clouds.9 mph65%29.69 "Hg10 mi
6:51 PM83 °FScattered clouds.10 mph57%29.68 "Hg10 mi
5:51 PM84 °FScattered clouds.10 mph53%29.68 "Hg10 mi
Weather by CustomWeather, © 2014

See weather overviewHow to use our weather pages